This is the latest recevied weather packets stored in our database for station/object KJ5JYX. If no packets are shown the sender has not sent any weather packets the latest 10 day(s).
| Time | Temp. | Humidity | Pressure | Rain* | Wind** | Luminosity | Snow |
|---|---|---|---|---|---|---|---|
| 1778073729 | 20.56° C | 98% | 1010.7 hPa | 0 mm | - | 50 W/m² | - |
| 1778073427 | 21.67° C | 98% | 1011 hPa | 0 mm | - | 29 W/m² | - |
| 1778073123 | 23.33° C | 99% | 1011 hPa | 0 mm | - | 50 W/m² | - |
| 1778072820 | 23.33° C | 99% | 1010.8 hPa | 0 mm | - | 72 W/m² | - |
| 1778072517 | 23.33° C | 99% | 1010.7 hPa | 0 mm | - | 77 W/m² | - |
| 1778072215 | 23.33° C | 99% | 1010.8 hPa | 0 mm | - | 63 W/m² | - |
| 1778071913 | 23.33° C | 99% | 1010.8 hPa | 0 mm | - | 72 W/m² | - |
| 1778071610 | 23.33° C | 99% | 1010.5 hPa | 0 mm | - | 52 W/m² | - |
| 1778071308 | 23.33° C | 99% | 1010.5 hPa | 0 mm | - | 38 W/m² | - |
| 1778071005 | 23.33° C | 99% | 1010 hPa | 0 mm | - | 32 W/m² | - |
| 1778070704 | 22.78° C | 99% | 1010.3 hPa | 0 mm | - | 26 W/m² | - |
| 1778070400 | 22.78° C | 99% | 1010.4 hPa | 0 mm | - | 21 W/m² | - |
| 1778070098 | 22.78° C | 99% | 1010.4 hPa | 0 mm | - | 19 W/m² | - |
| 1778069795 | 22.78° C | 99% | 1010.4 hPa | 0 mm | - | 15 W/m² | - |
| 1778069491 | 22.78° C | 99% | 1010.7 hPa | 0 mm | - | 9 W/m² | - |
| 1778069190 | 22.78° C | 99% | 1010.4 hPa | 0 mm | - | 3 W/m² | - |
| 1778068887 | 22.78° C | 98% | 1010.3 hPa | 1.27 mm | - | 2 W/m² | - |
| 1778068585 | 23.33° C | 98% | 1010.2 hPa | 3.05 mm | - | 1 W/m² | - |
| 1778068283 | 23.33° C | 98% | 1010.4 hPa | 1.78 mm | - | 1 W/m² | - |
| 1778067980 | 23.33° C | 98% | 1010.2 hPa | 0 mm | - | 0 W/m² | - |
| 1778067678 | 23.33° C | 98% | 1010.2 hPa | 0 mm | - | 0 W/m² | - |
| 1778067376 | 23.33° C | 98% | 1010.3 hPa | 0 mm | - | 0 W/m² | - |
| 1778067073 | 23.33° C | 97% | 1010.1 hPa | 0 mm | - | 0 W/m² | - |
| 1778066769 | 23.33° C | 97% | 1010.4 hPa | 0 mm | - | 0 W/m² | - |
| 1778066467 | 23.33° C | 97% | 1010.2 hPa | 0 mm | - | 0 W/m² | - |
* Rain latest hour (hover to see other rain measurements)
** Current wind speed in m/s (hover to see current wind gust speed)